Showing default

IRIDIUM 143, 43258

Orbit data source: Space-Track

IRIDIUM 143, 43258 is a payload satellite owned by Iridium (US) in LEO that was launched on Fri, 30 Mar 2018 UTC via an FALCON 9 launch vehicle from the Air Force Western Test Range (AFWTR). Payload-class satellites include a variety of spacecraft equipped with specific instruments for various scientific and technological missions. These include communications satellites like Starlink; space stations such as the ISS; scientific satellites like the Hubble; Earth observation satellites from companies like Planet Labs, Umbra, and HawkEye 360; GPS; miniature CubeSats for education and research; and military/defense satellites.

Loading next visibility...
Identifier
43258, 2018-030K
Orbit
LEO
Country
Flag of USUS
Related business
Manufacturer
OATK SSG Gilbert
Mission
Operational Commercial Communications
Bus & Motor
ELITEBUS, Unknown motor
Mass
860 kg wet, 700 kg dry
Launch date (UTC)
2018-03-30 (7 years ago)
Launch vehicle
FALCON 9
Launch site
Air Force Western Test Range (AFWTR)
Object type
Payload
Rocket body
Debris
Shape & HBR
Trap Box + 2 Pan, 4.7 m
Radar Cross Section
14.423 m², Large (>1 m²)

Expand to show TLE details & history
Last TLE update: 19 hours ago

TLE from 19 hours ago
0 IRIDIUM 143
1 43258U 18030K   25258.17138282  .00000121  00000-0  35968-4 0  9997
2 43258  86.3958  45.4957 0002539  86.2953 273.8533 14.34218633390670
Epoch: 2025-09-15T04:06Z
TLE epoch observation values (Epoch: 2025-09-15T04:06:47.475Z)
Latitude
-0.00004°
Longitude
-10.58198°
Altitude
780.593 km
Speed
7.464 km/s
True Right ascension
03h 01m 58s
True Declination
0° 00' 00"
Sunlit
Object was in full shadow at epoch
Visualization orbit readout
Latitude
Unknown
Longitude
Unknown
Altitude
Unknown
Speed
Unknown
Apparent Right ascension
Unknown
Apparent Declination
Unknown
Sunlit
N/A
Visualization observer readout
Local Sidereal Time
15:46:25
Azimuth
Unknown
Elevation
Unknown
Doppler factor
Unknown
Orbital elements
Apogee altitude
776.445 km
Perigee altitude
772.813 km
Semi-major axis
7,152.766 km
Eccentricity
0.00025
Inclination
86.3958°
RAAN
45.4957°
Arg. of periapsis
86.2953°
True anomaly
273.82427°
Mean anomaly
273.8533°
Eccentric anomaly
273.83879°
Mean motion
3.58783 °/min
Orbital period
100.34 mins
BSTAR
0.000035968
Loading maneuver chart data...
Computing Atmospheric mass density...
Loading historical data...
Loading historical data...
Loading historical data...
Loading historical data...
Loading historical data...
Loading historical data...
Loading historical data...

Documentation

Showing up to 5 results
|